STARLINK-1506, 45747

Orbit data source: Space-Track

STARLINK-1506, 45747 is a payload satellite owned by SpaceX/Seattle (US) in LEO that was launched on Sat, 13 Jun 2020 UTC via an FALCON 9 launch vehicle from the Air Force Eastern Test Range (AFETR). Payload-class satellites include a variety of spacecraft equipped with specific instruments for various scientific and technological missions. These include communications satellites like Starlink; space stations such as the ISS; scientific satellites like the Hubble; Earth observation satellites from companies like Planet Labs, Umbra, and HawkEye 360; GPS; miniature CubeSats for education and research; and military/defense satellites.

Loading next visibility...
Identifier
45747, 2020-038T
Orbit
LEO
Country
Flag of USUS
Related business
Manufacturer
SpaceX/Seattle
Mission
Partially operational Commercial Communications
Bus & Motor
STARLINK, Unknown motor
Mass
260 kg wet, ~248 kg dry
Launch date (UTC)
2020-06-13 (5 years ago)
Launch vehicle
FALCON 9
Launch site
Air Force Eastern Test Range (AFETR)
Object type
Payload
Rocket body
Debris
Shape & HBR
Box + 1 Pan, 10.1 m
Radar Cross Section
13.562 m², Large (>1 m²)

Expand to show TLE details & history
Last TLE update: 11 hours ago

TLE from 11 hours ago
0 STARLINK-1506
1 45747U 20038T   25286.64790034  .00007629  00000-0  35740-3 0  9992
2 45747  53.0500 159.8408 0004436 151.5777 208.5460 15.20655237294272
Epoch: 2025-10-13T15:32Z
TLE epoch observation values (Epoch: 2025-10-13T15:32:58.589Z)
Latitude
-0.00008°
Longitude
-95.85105°
Altitude
507.429 km
Speed
7.61 km/s
True Right ascension
10h 39m 21s
True Declination
0° 00' 00"
Sunlit
Object was in daylight at epoch
Visualization orbit readout
Latitude
Unknown
Longitude
Unknown
Altitude
Unknown
Speed
Unknown
Apparent Right ascension
Unknown
Apparent Declination
Unknown
Sunlit
N/A
Visualization observer readout
Local Sidereal Time
20:36:11
Azimuth
Unknown
Elevation
Unknown
Doppler factor
Unknown
Orbital elements
Apogee altitude
507.189 km
Perigee altitude
501.083 km
Semi-major axis
6,882.273 km
Eccentricity
0.00044
Inclination
53.05°
RAAN
159.8408°
Arg. of periapsis
151.5777°
True anomaly
208.52172°
Mean anomaly
208.546°
Eccentric anomaly
208.53386°
Mean motion
3.80142 °/min
Orbital period
94.7 mins
BSTAR
0.0003574
Loading maneuver chart data...
Computing Atmospheric mass density...

Documentation

Showing up to 5 results
|